This demonstration page uses our WeatherBlox Daily Observations layout. Learn more.

Left ArrowRight Arrow

39.51506, -84.39828

Hourly Observations for June 12, 2021

Temp ( °F °C ) Dew Point ( °F °C ) Humidity (%) Winds ( mph kmh ) Pressure ( in mb ) Visibility ( mi km ) Precip ( " mm )
12:15 am 00:15 Clear with Mist and Fog 72 22 N/A N/A ENE 3 6 29.81 1009 3 5 N/A
12:35 am 00:35 Hazy 70 21 N/A N/A NNW 5 7 29.82 1010 4 6 N/A
12:55 am 00:55 Hazy 70 21 N/A N/A E 5 7 29.81 1010 7 11 N/A
1:15 am 01:15 Clear with Mist and Fog 70 21 N/A N/A N N/A 29.81 1010 3 5 N/A
1:35 am 01:35 Clear with Mist and Fog 70 21 N/A N/A N N/A 29.81 1010 3 4 N/A
1:55 am 01:55 Clear with Mist and Fog 68 20 N/A N/A N N/A 29.80 1009 2 3 N/A
2:15 am 02:15 Mostly Cloudy with Mist and Fog 68 20 N/A N/A N 3 6 29.80 1009 1 1 N/A
2:35 am 02:35 Hazy 68 20 N/A N/A NNE 5 7 29.80 1009 5 8 N/A
2:55 am 02:55 Hazy 70 21 N/A N/A ENE 3 6 29.80 1009 5 8 N/A
3:15 am 03:15 Hazy 68 20 N/A N/A NE 5 7 29.81 1010 4 6 N/A
3:35 am 03:35 Hazy 70 21 N/A N/A N N/A 29.80 1009 5 8 N/A
3:55 am 03:55 Clear with Mist and Fog 68 20 N/A N/A NNW 5 7 29.81 1010 2 3 N/A
4:15 am 04:15 Clear with Mist and Fog 68 20 N/A N/A N N/A 29.81 1010 4 6 N/A
4:35 am 04:35 Mostly Cloudy with Fog 66 19 N/A N/A N N/A 29.82 1010 1 1 N/A
4:55 am 04:55 Mostly Cloudy with Mist and Fog 66 19 N/A N/A N N/A 29.82 1010 1 2 N/A
5:15 am 05:15 Clear with Mist and Fog 66 19 N/A N/A NNW 3 6 29.83 1010 3 4 N/A
5:35 am 05:35 Clear with Mist and Fog 66 19 N/A N/A N N/A 29.83 1010 4 6 N/A
5:55 am 05:55 Hazy 68 20 N/A N/A NNE 5 7 29.83 1010 4 6 N/A
6:15 am 06:15 Sunny with Mist and Fog 68 20 N/A N/A NNE 3 6 29.84 1011 4 6 N/A
6:35 am 06:35 Sunny with Mist and Fog 68 20 N/A N/A N N/A 29.85 1011 3 4 N/A
6:55 am 06:55 Sunny with Mist and Fog 68 20 N/A N/A NNE 3 6 29.85 1011 4 6 N/A
7:15 am 07:15 Mostly Cloudy with Mist and Fog 70 21 N/A N/A NNE 3 6 29.85 1011 4 6 N/A
7:35 am 07:35 Sunny with Mist and Fog 70 21 N/A N/A N N/A 29.85 1011 3 5 N/A
7:55 am 07:55 Hazy 70 21 N/A N/A NNE 3 6 29.85 1011 5 8 N/A
8:15 am 08:15 Sunny with Mist and Fog 73 22.5 72 22.4 99 99 NNE 3 6 29.86 1011 5 8 N/A
8:35 am 08:35 Partly Cloudy 74 23.5 73 22.9 96 96 N N/A 29.86 1011 7 11 N/A
8:55 am 08:55 Partly Cloudy 75 24.1 73 23 94 94 ENE 6 9 29.85 1011 10 16 N/A
9:15 am 09:15 Partly Cloudy 76 24.4 73 22.8 91 91 ENE 7 11 29.84 1011 10 16 N/A
9:35 am 09:35 Sunny 78 25.3 74 23.3 89 89 ENE 5 7 29.84 1011 10 16 N/A
9:55 am 09:55 Sunny 79 26.2 74 23.3 84 84 NE 6 9 29.84 1011 10 16 N/A
10:15 am 10:15 Sunny 80 26.5 72 22.3 78 78 N 7 11 29.85 1011 10 16 N/A
10:35 am 10:35 Sunny 81 27.3 73 22.9 77 77 NNE 6 9 29.85 1011 10 16 N/A
10:55 am 10:55 Hazy 83 28.2 73 22.5 71 71 ENE 7 11 29.84 1010 7 11 N/A
11:15 am 11:15 Sunny 84 29 72 22 66 66 ENE 7 11 29.83 1010 10 16 N/A
11:35 am 11:35 Sunny 85 29.5 72 22.2 65 65 ENE 10 17 29.83 1010 10 16 N/A
11:55 am 11:55 Sunny 86 29.8 71 21.7 62 62 NNE 8 13 29.83 1010 10 16 N/A
12:15 pm 12:15 Sunny 86 30.2 71 21.7 60 60 NE 8 13 29.83 1010 10 16 N/A
12:35 pm 12:35 Sunny 87 30.6 71 21.9 60 60 E 6 9 29.83 1010 7 11 N/A
12:55 pm 12:55 Partly Cloudy 87 30.4 71 21.9 60 60 N 7 11 29.83 1010 10 16 N/A
1:15 pm 13:15 Partly Cloudy 87 30.6 71 21.5 58 58 NE 3 6 29.82 1010 10 16 N/A
1:35 pm 13:35 Sunny 88 31.1 70 21.3 56 56 NW 3 6 29.82 1010 10 16 N/A
1:55 pm 13:55 Sunny 88 31.1 71 21.4 56 56 N 7 11 29.81 1009 10 16 N/A
2:15 pm 14:15 Partly Cloudy 89 31.4 70 21 54 54 NNE 6 9 29.82 1010 10 16 N/A
2:35 pm 14:35 Mostly Cloudy 88 31.1 69 20.5 53 53 N 3 6 29.81 1009 7 11 N/A
2:55 pm 14:55 Partly Cloudy 89 31.5 70 21.3 55 55 NE 3 6 29.81 1009 10 16 N/A
3:15 pm 15:15 Partly Cloudy 89 31.6 69 20.5 52 52 NNE 5 7 29.81 1009 10 16 N/A
3:35 pm 15:35 Partly Cloudy 90 32 70 20.9 52 52 ENE 5 7 29.80 1009 10 16 N/A
3:55 pm 15:55 Mostly Cloudy 88 31.2 71 21.4 56 56 NE 6 9 29.80 1009 10 16 N/A
4:15 pm 16:15 Mostly Cloudy 89 31.5 69 20.7 53 53 ESE 3 6 29.80 1009 10 16 N/A
4:35 pm 16:35 Partly Cloudy 90 32 70 21.2 53 53 NW 3 6 29.79 1009 10 16 N/A
4:55 pm 16:55 Partly Cloudy 90 32.3 69 20.6 50 50 ENE 5 7 29.78 1008 10 16 N/A
5:15 pm 17:15 Partly Cloudy 90 32.2 69 20.8 51 51 E 6 9 29.78 1008 10 16 N/A
5:35 pm 17:35 Sunny 89 31.8 71 21.4 54 54 ENE 5 7 29.78 1008 7 11 N/A
5:55 pm 17:55 Sunny 90 32.2 70 21.1 52 52 NNE 3 6 29.78 1008 10 16 N/A
6:15 pm 18:15 Sunny 90 32.1 70 21.1 52 52 N N/A 29.79 1009 10 16 N/A
6:35 pm 18:35 Partly Cloudy 90 32 70 21 52 52 N N/A 29.78 1008 10 16 N/A
6:55 pm 18:55 Sunny 89 31.7 69 20.5 51 51 N N/A 29.78 1008 10 16 N/A
7:15 pm 19:15 Sunny 88 31.1 69 20.8 54 54 N N/A 29.77 1008 10 16 N/A
7:35 pm 19:35 Sunny 83 28.1 78 25.3 85 85 W 3 6 29.79 1009 10 16 N/A
7:55 pm 19:55 Sunny 82 27.9 78 25.7 88 88 N N/A 29.80 1009 10 16 N/A
8:15 pm 20:15 Sunny 83 28.5 73 22.9 72 72 N N/A 29.80 1009 10 16 N/A
8:35 pm 20:35 Sunny 80 26.8 78 25.8 94 94 N N/A 29.80 1009 10 16 N/A
8:55 pm 20:55 Sunny 79 26.1 78 25.5 97 97 N N/A 29.80 1009 10 16 N/A
9:15 pm 21:15 Clear 81 27.1 73 22.5 76 76 WNW 3 6 29.80 1009 10 16 N/A
9:35 pm 21:35 Clear 80 26.7 73 22.6 78 78 W 3 6 29.80 1009 10 16 N/A
9:55 pm 21:55 Clear 79 25.9 73 23 84 84 N N/A 29.81 1010 10 16 N/A
10:15 pm 22:15 Clear 78 25.4 73 22.7 85 85 N N/A 29.82 1010 10 16 N/A
10:35 pm 22:35 Clear 75 23.7 74 23.5 99 99 N N/A 29.84 1010 10 16 N/A
10:55 pm 22:55 Clear 73 23 N/A N/A W 6 9 29.86 1011 10 16 N/A
11:15 pm 23:15 Clear 74 23.6 73 23 96 96 N N/A 29.86 1011 10 16 N/A
11:35 pm 23:35 Clear 74 23.2 74 23.1 99 99 WNW 3 6 29.87 1011 10 16 N/A
11:55 pm 23:55 Clear 73 23 73 23 100 100 N N/A 29.87 1011 10 16 N/A

Powered by AerisWeather